TITAN 34D TRANSTAGE R/B

基本信息
目录编号:
14931
目录名称:
TITAN 34D TRANSTAGE R/B
国际标识:
1984-037B
轨道中心:
EARTH
物体状态:
在轨
发射日期:
1984-04-14 UTC
国别:
美国 (US)
轨道信息
数据来源: 国际轨道数据
星历时间: 2026-07-13T22:57:35+0800
半长轴: 41918.358km
偏心率: 0.0031512
轨道倾角: 8.732°
近地点辐角: 327.377°
升交点赤经: 310.852°
平近点角: 32.570°
近地点: 35408.127km
远地点: 35672.315km
周期: 1423.528分钟
每日圈数: 1.011571
详细信息
发射场:
AFETR
轨道高度:
MEO
数据来源:
AOE Integration Group
参考系:
TEME
时间系统:
UTC
历元类型:
SGP4
2D轨道图
3D轨道图
轨道高度分析图
轨道倾角分析图
轨道综合分析图
查看轨道综合分析图